TimePST,TemperatureF,Dew PointF,Humidity,Sea Level PressureIn,VisibilityMPH,Wind Direction,Wind SpeedMPH,Gust SpeedMPH,PrecipitationIn,Events,Conditions,WindDirDegrees,DateUTC
12:05 AM,32.0,26.6,80,30.36,0.2,Calm,Calm,-,N/A,,Haze,0,2013-01-20 08:05:00
12:18 AM,32.0,26.6,80,30.36,0.5,Calm,Calm,-,N/A,,Haze,0,2013-01-20 08:18:00
12:40 AM,33.8,26.6,75,30.36,0.2,Calm,Calm,-,N/A,,Haze,0,2013-01-20 08:40:00
12:49 AM,32.0,26.6,80,30.36,0.5,Calm,Calm,-,N/A,,Haze,0,2013-01-20 08:49:00
12:53 AM,32.0,27.0,82,30.36,0.5,Calm,Calm,-,N/A,,Haze,0,2013-01-20 08:53:00
1:53 AM,32.0,27.0,82,30.37,0.8,WNW,3.5,-,N/A,,Haze,290,2013-01-20 09:53:00
2:53 AM,32.0,27.0,82,30.39,0.8,West,3.5,-,N/A,,Haze,280,2013-01-20 10:53:00
3:04 AM,30.2,26.6,86,30.37,1.5,West,4.6,-,N/A,,Haze,260,2013-01-20 11:04:00
3:35 AM,30.2,26.6,86,30.37,0.5,Calm,Calm,-,N/A,Fog,Light Freezing Fog,0,2013-01-20 11:35:00
3:53 AM,30.9,27.0,85,30.37,0.8,Calm,Calm,-,N/A,,Mist,0,2013-01-20 11:53:00
4:11 AM,30.2,26.6,86,30.37,0.2,Calm,Calm,-,N/A,,Haze,0,2013-01-20 12:11:00
4:24 AM,30.2,26.6,86,30.36,0.5,Calm,Calm,-,N/A,,Haze,0,2013-01-20 12:24:00
4:53 AM,30.9,26.1,82,30.36,0.5,Calm,Calm,-,N/A,,Haze,0,2013-01-20 12:53:00
5:11 AM,30.2,26.6,86,30.36,0.2,Calm,Calm,-,N/A,Fog,Light Freezing Fog,0,2013-01-20 13:11:00
5:53 AM,30.9,26.1,82,30.36,0.2,Calm,Calm,-,N/A,,Haze,0,2013-01-20 13:53:00
6:53 AM,30.0,26.1,85,30.35,0.2,Calm,Calm,-,N/A,Fog,Light Freezing Fog,0,2013-01-20 14:53:00
7:53 AM,30.0,26.1,85,30.37,0.5,Calm,Calm,-,N/A,Fog,Light Freezing Fog,0,2013-01-20 15:53:00
8:38 AM,30.2,26.6,86,30.37,0.2,Calm,Calm,-,N/A,Fog,Light Freezing Fog,0,2013-01-20 16:38:00
8:53 AM,30.9,27.0,85,30.38,0.2,Calm,Calm,-,N/A,Fog,Light Freezing Fog,0,2013-01-20 16:53:00
9:39 AM,30.2,26.6,86,30.38,0.5,Calm,Calm,-,N/A,Fog,Light Freezing Fog,0,2013-01-20 17:39:00
9:53 AM,30.9,27.0,85,30.38,0.8,Calm,Calm,-,N/A,,Overcast,0,2013-01-20 17:53:00
10:28 AM,30.2,26.6,86,30.38,1.0,Calm,Calm,-,0.01,,Overcast,0,2013-01-20 18:28:00
10:53 AM,30.9,27.0,85,30.38,1.8,Calm,Calm,-,0.01,,Overcast,0,2013-01-20 18:53:00
11:11 AM,30.2,28.4,93,30.37,2.5,Calm,Calm,-,N/A,,Overcast,0,2013-01-20 19:11:00
11:19 AM,32.0,28.4,87,30.37,1.2,Calm,Calm,-,N/A,,Overcast,0,2013-01-20 19:19:00
11:44 AM,32.0,28.4,87,30.36,2.0,Calm,Calm,-,N/A,,Overcast,0,2013-01-20 19:44:00
11:53 AM,33.1,28.9,85,30.35,2.5,Calm,Calm,-,N/A,,Overcast,0,2013-01-20 19:53:00
12:20 PM,33.8,28.4,81,30.34,3.0,Calm,Calm,-,N/A,,Overcast,0,2013-01-20 20:20:00
12:53 PM,33.1,28.9,85,30.33,5.0,Calm,Calm,-,N/A,,Overcast,0,2013-01-20 20:53:00
1:53 PM,34.0,30.0,85,30.30,5.0,Calm,Calm,-,N/A,,Overcast,0,2013-01-20 21:53:00
2:36 PM,35.6,30.2,81,30.29,8.0,Calm,Calm,-,N/A,,Scattered Clouds,0,2013-01-20 22:36:00
2:48 PM,33.8,30.2,87,30.29,6.0,NNW,3.5,-,N/A,,Mostly Cloudy,330,2013-01-20 22:48:00
2:53 PM,34.0,30.0,85,30.29,5.0,NNW,3.5,-,N/A,,Mostly Cloudy,340,2013-01-20 22:53:00
3:08 PM,32.0,28.4,87,30.28,6.0,Calm,Calm,-,N/A,,Scattered Clouds,0,2013-01-20 23:08:00
3:53 PM,35.1,30.0,82,30.28,6.0,Calm,Calm,-,N/A,,Haze,0,2013-01-20 23:53:00
4:53 PM,30.9,28.9,92,30.27,4.0,Calm,Calm,-,N/A,,Clear,0,2013-01-21 00:53:00
5:53 PM,28.0,26.1,92,30.26,4.0,West,3.5,-,N/A,,Clear,260,2013-01-21 01:53:00
6:39 PM,28.4,26.6,93,30.26,1.8,Calm,Calm,-,N/A,,Clear,0,2013-01-21 02:39:00
6:53 PM,28.0,27.0,96,30.27,4.0,Calm,Calm,-,N/A,,Clear,0,2013-01-21 02:53:00
7:03 PM,28.4,24.8,86,30.26,1.8,Calm,Calm,-,N/A,,Clear,0,2013-01-21 03:03:00
7:15 PM,26.6,24.8,93,30.27,0.5,Calm,Calm,-,N/A,Fog,Light Freezing Fog,0,2013-01-21 03:15:00
7:20 PM,26.6,24.8,93,30.27,1.2,Calm,Calm,-,N/A,,Partly Cloudy,0,2013-01-21 03:20:00
7:28 PM,26.6,24.8,93,30.27,2.0,Calm,Calm,-,N/A,,Partly Cloudy,0,2013-01-21 03:28:00
7:32 PM,26.6,24.8,93,30.27,1.0,Calm,Calm,-,N/A,,Mist,0,2013-01-21 03:32:00
7:43 PM,26.6,24.8,93,30.27,2.0,Calm,Calm,-,N/A,,Clear,0,2013-01-21 03:43:00
7:53 PM,26.1,24.1,92,30.28,1.5,Calm,Calm,-,N/A,,Partly Cloudy,0,2013-01-21 03:53:00
7:58 PM,26.6,24.8,93,30.27,0.2,Calm,Calm,-,N/A,Fog,Light Freezing Fog,0,2013-01-21 03:58:00
8:18 PM,24.8,24.8,100,30.27,0.2,Calm,Calm,-,N/A,Fog,Light Freezing Fog,0,2013-01-21 04:18:00
8:43 PM,26.6,24.8,93,30.27,0.5,Calm,Calm,-,N/A,Fog,Light Freezing Fog,0,2013-01-21 04:43:00
8:53 PM,25.0,24.1,96,30.28,0.8,Calm,Calm,-,N/A,,Mist,0,2013-01-21 04:53:00
8:58 PM,26.6,24.8,93,30.28,1.2,Calm,Calm,-,N/A,,Scattered Clouds,0,2013-01-21 04:58:00
9:07 PM,24.8,24.8,100,30.28,3.0,Calm,Calm,-,N/A,,Mostly Cloudy,0,2013-01-21 05:07:00
9:19 PM,26.6,24.8,93,30.28,1.8,Calm,Calm,-,N/A,,Mostly Cloudy,0,2013-01-21 05:19:00
9:31 PM,26.6,24.8,93,30.28,0.2,Calm,Calm,-,N/A,Fog,Light Freezing Fog,0,2013-01-21 05:31:00
9:53 PM,27.0,25.0,92,30.29,0.2,Calm,Calm,-,N/A,Fog,Light Freezing Fog,0,2013-01-21 05:53:00
10:08 PM,26.6,24.8,93,30.29,0.2,Calm,Calm,-,N/A,Fog,Light Freezing Fog,0,2013-01-21 06:08:00
10:53 PM,26.1,25.0,96,30.29,0.2,Calm,Calm,-,N/A,Fog,Light Freezing Fog,0,2013-01-21 06:53:00
11:53 PM,25.0,23.0,92,30.30,0.2,Calm,Calm,-,N/A,Fog,Light Freezing Fog,0,2013-01-21 07:53:00